owner,sensor,date,latitude,longitude,vertical_datum,sea_water_temperature,qcFlag
Anadarko,ioos:station:wmo:42373:1,2024-03-01T00:01:00Z,27.3539,-94.6254,79.0,21.4,11111222
Anadarko,ioos:station:wmo:42373:1,2024-03-01T00:21:00Z,27.3539,-94.6254,79.0,21.4,11111222
Anadarko,ioos:station:wmo:42373:1,2024-03-01T00:41:00Z,27.3539,-94.6254,79.0,21.3,11111222
Anadarko,ioos:station:wmo:42373:1,2024-03-01T01:01:00Z,27.3539,-94.6254,79.0,21.3,11111222
Anadarko,ioos:station:wmo:42373:1,2024-03-01T01:21:00Z,27.3539,-94.6254,79.0,21.2,11111222
Anadarko,ioos:station:wmo:42373:1,2024-03-01T01:41:00Z,27.3539,-94.6254,79.0,21.3,11111222
Anadarko,ioos:station:wmo:42373:1,2024-03-01T02:01:00Z,27.3539,-94.6254,79.0,21.3,11111222
Anadarko,ioos:station:wmo:42373:1,2024-03-01T02:21:00Z,27.3539,-94.6254,79.0,21.2,11111222
Anadarko,ioos:station:wmo:42373:1,2024-03-01T02:41:00Z,27.3539,-94.6254,79.0,21.1,11111222
Anadarko,ioos:station:wmo:42373:1,2024-03-01T03:01:00Z,27.3539,-94.6254,79.0,21.2,11111222
Anadarko,ioos:station:wmo:42373:1,2024-03-01T03:21:00Z,27.3539,-94.6254,79.0,21.2,11111222
Anadarko,ioos:station:wmo:42373:1,2024-03-01T03:41:00Z,27.3539,-94.6254,79.0,21.2,11111222
Anadarko,ioos:station:wmo:42373:1,2024-03-01T04:01:00Z,27.3539,-94.6254,79.0,21.2,11111222
Anadarko,ioos:station:wmo:42373:1,2024-03-01T04:21:00Z,27.3539,-94.6254,79.0,21.1,11111222
Anadarko,ioos:station:wmo:42373:1,2024-03-01T04:41:00Z,27.3539,-94.6254,79.0,21.1,11111222
Anadarko,ioos:station:wmo:42373:1,2024-03-01T05:01:00Z,27.3539,-94.6254,79.0,21.2,11111222
Anadarko,ioos:station:wmo:42373:1,2024-03-01T05:21:00Z,27.3539,-94.6254,79.0,21.2,11111222
Anadarko,ioos:station:wmo:42373:1,2024-03-01T05:41:00Z,27.3539,-94.6254,79.0,21.2,11111222
Anadarko,ioos:station:wmo:42373:1,2024-03-01T06:01:00Z,27.3539,-94.6254,79.0,21.1,11111222
Anadarko,ioos:station:wmo:42373:1,2024-03-01T06:21:00Z,27.3539,-94.6254,79.0,21.2,11111222
Anadarko,ioos:station:wmo:42373:1,2024-03-01T06:41:00Z,27.3539,-94.6254,79.0,21.2,11111222
Anadarko,ioos:station:wmo:42373:1,2024-03-01T07:01:00Z,27.3539,-94.6254,79.0,21.2,11111222
Anadarko,ioos:station:wmo:42373:1,2024-03-01T07:21:00Z,27.3539,-94.6254,79.0,21.2,11111222
Anadarko,ioos:station:wmo:42373:1,2024-03-01T07:41:00Z,27.3539,-94.6254,79.0,21.2,11111222
Anadarko,ioos:station:wmo:42373:1,2024-03-01T08:01:00Z,27.3539,-94.6254,79.0,21.2,11111222
Anadarko,ioos:station:wmo:42373:1,2024-03-01T08:21:00Z,27.3539,-94.6254,79.0,21.3,11111222
Anadarko,ioos:station:wmo:42373:1,2024-03-01T08:41:00Z,27.3539,-94.6254,79.0,21.3,11111222
Anadarko,ioos:station:wmo:42373:1,2024-03-01T09:01:00Z,27.3539,-94.6254,79.0,21.3,11111222
Anadarko,ioos:station:wmo:42373:1,2024-03-01T09:21:00Z,27.3539,-94.6254,79.0,21.2,11111222
Anadarko,ioos:station:wmo:42373:1,2024-03-01T09:41:00Z,27.3539,-94.6254,79.0,21.3,11111222
Anadarko,ioos:station:wmo:42373:1,2024-03-01T10:01:00Z,27.3539,-94.6254,79.0,21.3,11111222
Anadarko,ioos:station:wmo:42373:1,2024-03-01T10:21:00Z,27.3539,-94.6254,79.0,21.3,11111222
Anadarko,ioos:station:wmo:42373:1,2024-03-01T10:41:00Z,27.3539,-94.6254,79.0,21.4,11111222
Anadarko,ioos:station:wmo:42373:1,2024-03-01T11:01:00Z,27.3539,-94.6254,79.0,21.3,11111222
Anadarko,ioos:station:wmo:42373:1,2024-03-01T11:21:00Z,27.3539,-94.6254,79.0,21.4,11111222
Anadarko,ioos:station:wmo:42373:1,2024-03-01T11:41:00Z,27.3539,-94.6254,79.0,21.3,11111222
Anadarko,ioos:station:wmo:42373:1,2024-03-01T12:01:00Z,27.3539,-94.6254,79.0,21.3,11111222
Anadarko,ioos:station:wmo:42373:1,2024-03-01T12:21:00Z,27.3539,-94.6254,79.0,21.3,11111222
Anadarko,ioos:station:wmo:42373:1,2024-03-01T12:41:00Z,27.3539,-94.6254,79.0,21.3,11111222
Anadarko,ioos:station:wmo:42373:1,2024-03-01T13:01:00Z,27.3539,-94.6254,79.0,21.3,11111222
Anadarko,ioos:station:wmo:42373:1,2024-03-01T13:21:00Z,27.3539,-94.6254,79.0,21.3,11111222
Anadarko,ioos:station:wmo:42373:1,2024-03-01T13:41:00Z,27.3539,-94.6254,79.0,21.4,11111222
Anadarko,ioos:station:wmo:42373:1,2024-03-01T14:01:00Z,27.3539,-94.6254,79.0,21.4,11111222
Anadarko,ioos:station:wmo:42373:1,2024-03-01T14:21:00Z,27.3539,-94.6254,79.0,21.4,11111222
Anadarko,ioos:station:wmo:42373:1,2024-03-01T14:41:00Z,27.3539,-94.6254,79.0,21.4,11111222
Anadarko,ioos:station:wmo:42373:1,2024-03-01T15:01:00Z,27.3539,-94.6254,79.0,21.3,11111222
Anadarko,ioos:station:wmo:42373:1,2024-03-01T15:21:00Z,27.3539,-94.6254,79.0,21.3,11111222
Anadarko,ioos:station:wmo:42373:1,2024-03-01T15:41:00Z,27.3539,-94.6254,79.0,21.3,11111222
Anadarko,ioos:station:wmo:42373:1,2024-03-01T16:01:00Z,27.3539,-94.6254,79.0,21.3,11111222
Anadarko,ioos:station:wmo:42373:1,2024-03-01T16:21:00Z,27.3539,-94.6254,79.0,21.3,11111222
Anadarko,ioos:station:wmo:42373:1,2024-03-01T16:41:00Z,27.3539,-94.6254,79.0,21.3,11111222
Anadarko,ioos:station:wmo:42373:1,2024-03-01T17:01:00Z,27.3539,-94.6254,79.0,21.2,11111222
Anadarko,ioos:station:wmo:42373:1,2024-03-01T17:21:00Z,27.3539,-94.6254,79.0,21.2,11111222
Anadarko,ioos:station:wmo:42373:1,2024-03-01T17:41:00Z,27.3539,-94.6254,79.0,21.2,11111222
Anadarko,ioos:station:wmo:42373:1,2024-03-01T18:01:00Z,27.3539,-94.6254,79.0,21.2,11111222
Anadarko,ioos:station:wmo:42373:1,2024-03-01T18:21:00Z,27.3539,-94.6254,79.0,21.2,11111222
Anadarko,ioos:station:wmo:42373:1,2024-03-01T18:41:00Z,27.3539,-94.6254,79.0,21.2,11111222
Anadarko,ioos:station:wmo:42373:1,2024-03-01T19:01:00Z,27.3539,-94.6254,79.0,21.2,11111222
Anadarko,ioos:station:wmo:42373:1,2024-03-01T19:21:00Z,27.3539,-94.6254,79.0,21.2,11111222
Anadarko,ioos:station:wmo:42373:1,2024-03-01T19:41:00Z,27.3539,-94.6254,79.0,21.2,11111222
Anadarko,ioos:station:wmo:42373:1,2024-03-01T20:01:00Z,27.3539,-94.6254,79.0,21.2,11111222
Anadarko,ioos:station:wmo:42373:1,2024-03-01T20:21:00Z,27.3539,-94.6254,79.0,21.2,11111222
Anadarko,ioos:station:wmo:42373:1,2024-03-01T20:41:00Z,27.3539,-94.6254,79.0,21.2,11111222
Anadarko,ioos:station:wmo:42373:1,2024-03-01T21:01:00Z,27.3539,-94.6254,79.0,21.2,11111222
Anadarko,ioos:station:wmo:42373:1,2024-03-01T21:21:00Z,27.3539,-94.6254,79.0,21.2,11111222
Anadarko,ioos:station:wmo:42373:1,2024-03-01T21:41:00Z,27.3539,-94.6254,79.0,21.3,11111222
Anadarko,ioos:station:wmo:42373:1,2024-03-01T22:01:00Z,27.3539,-94.6254,79.0,21.3,11111222
Anadarko,ioos:station:wmo:42373:1,2024-03-01T22:21:00Z,27.3539,-94.6254,79.0,21.3,11111222
Anadarko,ioos:station:wmo:42373:1,2024-03-01T22:41:00Z,27.3539,-94.6254,79.0,21.3,11111222
Anadarko,ioos:station:wmo:42373:1,2024-03-01T23:01:00Z,27.3539,-94.6254,79.0,21.3,11111222
Anadarko,ioos:station:wmo:42373:1,2024-03-01T23:21:00Z,27.3539,-94.6254,79.0,21.3,11111222
Anadarko,ioos:station:wmo:42373:1,2024-03-01T23:41:00Z,27.3539,-94.6254,79.0,21.3,11111222
Anadarko,ioos:station:wmo:42373:1,2024-03-02T00:01:00Z,27.3539,-94.6254,79.0,21.3,11111222
Anadarko,ioos:station:wmo:42373:1,2024-03-02T00:21:00Z,27.3539,-94.6254,79.0,21.3,11111222
Anadarko,ioos:station:wmo:42373:1,2024-03-02T00:41:00Z,27.3539,-94.6254,79.0,21.3,11111222
Anadarko,ioos:station:wmo:42373:1,2024-03-02T01:01:00Z,27.3539,-94.6254,79.0,21.2,11111222
Anadarko,ioos:station:wmo:42373:1,2024-03-02T01:21:00Z,27.3539,-94.6254,79.0,21.2,11111222
Anadarko,ioos:station:wmo:42373:1,2024-03-02T01:41:00Z,27.3539,-94.6254,79.0,21.2,11111222
Anadarko,ioos:station:wmo:42373:1,2024-03-02T02:01:00Z,27.3539,-94.6254,79.0,21.1,11111222
Anadarko,ioos:station:wmo:42373:1,2024-03-02T02:21:00Z,27.3539,-94.6254,79.0,21.1,11111222
Anadarko,ioos:station:wmo:42373:1,2024-03-02T02:41:00Z,27.3539,-94.6254,79.0,21.1,11111222
Anadarko,ioos:station:wmo:42373:1,2024-03-02T03:01:00Z,27.3539,-94.6254,79.0,21.3,11111222
Anadarko,ioos:station:wmo:42373:1,2024-03-02T03:21:00Z,27.3539,-94.6254,79.0,21.3,11111222
Anadarko,ioos:station:wmo:42373:1,2024-03-02T03:41:00Z,27.3539,-94.6254,79.0,21.3,11111222
Anadarko,ioos:station:wmo:42373:1,2024-03-02T04:01:00Z,27.3539,-94.6254,79.0,21.2,11111222
Anadarko,ioos:station:wmo:42373:1,2024-03-02T04:21:00Z,27.3539,-94.6254,79.0,21.1,11111222
Anadarko,ioos:station:wmo:42373:1,2024-03-02T04:41:00Z,27.3539,-94.6254,79.0,21.1,11111222
Anadarko,ioos:station:wmo:42373:1,2024-03-02T05:01:00Z,27.3539,-94.6254,79.0,21.1,11111222
Anadarko,ioos:station:wmo:42373:1,2024-03-02T05:21:00Z,27.3539,-94.6254,79.0,21.2,11111222
Anadarko,ioos:station:wmo:42373:1,2024-03-02T05:41:00Z,27.3539,-94.6254,79.0,21.2,11111222
Anadarko,ioos:station:wmo:42373:1,2024-03-02T06:01:00Z,27.3539,-94.6254,79.0,21.1,11111222
Anadarko,ioos:station:wmo:42373:1,2024-03-02T06:21:00Z,27.3539,-94.6254,79.0,21.0,11111222
Anadarko,ioos:station:wmo:42373:1,2024-03-02T06:41:00Z,27.3539,-94.6254,79.0,21.2,11111222
Anadarko,ioos:station:wmo:42373:1,2024-03-02T07:01:00Z,27.3539,-94.6254,79.0,21.4,11111222
Anadarko,ioos:station:wmo:42373:1,2024-03-02T07:21:00Z,27.3539,-94.6254,79.0,21.4,11111222
Anadarko,ioos:station:wmo:42373:1,2024-03-02T07:41:00Z,27.3539,-94.6254,79.0,21.4,11111222
Anadarko,ioos:station:wmo:42373:1,2024-03-02T08:01:00Z,27.3539,-94.6254,79.0,21.4,11111222
Anadarko,ioos:station:wmo:42373:1,2024-03-02T08:21:00Z,27.3539,-94.6254,79.0,21.4,11111222
Anadarko,ioos:station:wmo:42373:1,2024-03-02T08:41:00Z,27.3539,-94.6254,79.0,21.4,11111222
Anadarko,ioos:station:wmo:42373:1,2024-03-02T09:01:00Z,27.3539,-94.6254,79.0,21.3,11111222
Anadarko,ioos:station:wmo:42373:1,2024-03-02T09:21:00Z,27.3539,-94.6254,79.0,21.4,11111222
Anadarko,ioos:station:wmo:42373:1,2024-03-02T09:41:00Z,27.3539,-94.6254,79.0,21.4,11111222
Anadarko,ioos:station:wmo:42373:1,2024-03-02T10:01:00Z,27.3539,-94.6254,79.0,21.4,11111222
Anadarko,ioos:station:wmo:42373:1,2024-03-02T10:21:00Z,27.3539,-94.6254,79.0,21.4,11111222
Anadarko,ioos:station:wmo:42373:1,2024-03-02T10:41:00Z,27.3539,-94.6254,79.0,21.4,11111222
Anadarko,ioos:station:wmo:42373:1,2024-03-02T11:01:00Z,27.3539,-94.6254,79.0,21.4,11111222
Anadarko,ioos:station:wmo:42373:1,2024-03-02T11:21:00Z,27.3539,-94.6254,79.0,21.4,11111222
Anadarko,ioos:station:wmo:42373:1,2024-03-02T11:41:00Z,27.3539,-94.6254,79.0,21.4,11111222
Anadarko,ioos:station:wmo:42373:1,2024-03-02T12:01:00Z,27.3539,-94.6254,79.0,21.4,11111222
Anadarko,ioos:station:wmo:42373:1,2024-03-02T12:21:00Z,27.3539,-94.6254,79.0,21.4,11111222
Anadarko,ioos:station:wmo:42373:1,2024-03-02T12:41:00Z,27.3539,-94.6254,79.0,21.4,11111222
Anadarko,ioos:station:wmo:42373:1,2024-03-02T13:01:00Z,27.3539,-94.6254,79.0,21.4,11111222
Anadarko,ioos:station:wmo:42373:1,2024-03-02T13:21:00Z,27.3539,-94.6254,79.0,21.3,11111222
Anadarko,ioos:station:wmo:42373:1,2024-03-02T13:41:00Z,27.3539,-94.6254,79.0,21.3,11111222
Anadarko,ioos:station:wmo:42373:1,2024-03-02T14:01:00Z,27.3539,-94.6254,79.0,21.4,11111222
Anadarko,ioos:station:wmo:42373:1,2024-03-02T14:21:00Z,27.3539,-94.6254,79.0,21.3,11111222
Anadarko,ioos:station:wmo:42373:1,2024-03-02T14:41:00Z,27.3539,-94.6254,79.0,21.2,11111222
Anadarko,ioos:station:wmo:42373:1,2024-03-02T15:01:00Z,27.3539,-94.6254,79.0,21.1,11111222
Anadarko,ioos:station:wmo:42373:1,2024-03-02T15:21:00Z,27.3539,-94.6254,79.0,21.1,11111222
Anadarko,ioos:station:wmo:42373:1,2024-03-02T15:41:00Z,27.3539,-94.6254,79.0,21.1,11111222
Anadarko,ioos:station:wmo:42373:1,2024-03-02T16:01:00Z,27.3539,-94.6254,79.0,21.1,11111222
Anadarko,ioos:station:wmo:42373:1,2024-03-02T16:21:00Z,27.3539,-94.6254,79.0,21.1,11111222
Anadarko,ioos:station:wmo:42373:1,2024-03-02T16:41:00Z,27.3539,-94.6254,79.0,21.1,11111222
Anadarko,ioos:station:wmo:42373:1,2024-03-02T17:01:00Z,27.3539,-94.6254,79.0,21.1,11111222
Anadarko,ioos:station:wmo:42373:1,2024-03-02T17:21:00Z,27.3539,-94.6254,79.0,21.1,11111222
Anadarko,ioos:station:wmo:42373:1,2024-03-02T17:41:00Z,27.3539,-94.6254,79.0,21.1,11111222
Anadarko,ioos:station:wmo:42373:1,2024-03-02T18:01:00Z,27.3539,-94.6254,79.0,21.1,11111222
Anadarko,ioos:station:wmo:42373:1,2024-03-02T18:21:00Z,27.3539,-94.6254,79.0,21.1,11111222
Anadarko,ioos:station:wmo:42373:1,2024-03-02T18:41:00Z,27.3539,-94.6254,79.0,21.1,11111222
Anadarko,ioos:station:wmo:42373:1,2024-03-02T19:01:00Z,27.3539,-94.6254,79.0,21.1,11111222
Anadarko,ioos:station:wmo:42373:1,2024-03-02T19:21:00Z,27.3539,-94.6254,79.0,21.1,11111222
Anadarko,ioos:station:wmo:42373:1,2024-03-02T19:41:00Z,27.3539,-94.6254,79.0,21.1,11111222
Anadarko,ioos:station:wmo:42373:1,2024-03-02T20:01:00Z,27.3539,-94.6254,79.0,21.1,11111222
Anadarko,ioos:station:wmo:42373:1,2024-03-02T20:21:00Z,27.3539,-94.6254,79.0,21.1,11111222
Anadarko,ioos:station:wmo:42373:1,2024-03-02T20:41:00Z,27.3539,-94.6254,79.0,21.1,11111222
Anadarko,ioos:station:wmo:42373:1,2024-03-02T21:01:00Z,27.3539,-94.6254,79.0,21.1,11111222
Anadarko,ioos:station:wmo:42373:1,2024-03-02T21:21:00Z,27.3539,-94.6254,79.0,21.1,11111222
Anadarko,ioos:station:wmo:42373:1,2024-03-02T21:41:00Z,27.3539,-94.6254,79.0,21.2,11111222
Anadarko,ioos:station:wmo:42373:1,2024-03-02T22:01:00Z,27.3539,-94.6254,79.0,21.2,11111222
Anadarko,ioos:station:wmo:42373:1,2024-03-02T22:21:00Z,27.3539,-94.6254,79.0,21.2,11111222
Anadarko,ioos:station:wmo:42373:1,2024-03-02T22:41:00Z,27.3539,-94.6254,79.0,21.2,11111222
Anadarko,ioos:station:wmo:42373:1,2024-03-02T23:01:00Z,27.3539,-94.6254,79.0,21.2,11111222
Anadarko,ioos:station:wmo:42373:1,2024-03-02T23:21:00Z,27.3539,-94.6254,79.0,21.1,11111222
Anadarko,ioos:station:wmo:42373:1,2024-03-02T23:41:00Z,27.3539,-94.6254,79.0,21.1,11111222
Anadarko,ioos:station:wmo:42373:1,2024-03-03T00:01:00Z,27.3539,-94.6254,79.0,21.1,11111222
Anadarko,ioos:station:wmo:42373:1,2024-03-03T00:21:00Z,27.3539,-94.6254,79.0,21.1,11111222
Anadarko,ioos:station:wmo:42373:1,2024-03-03T00:41:00Z,27.3539,-94.6254,79.0,21.1,11111222
Anadarko,ioos:station:wmo:42373:1,2024-03-03T01:01:00Z,27.3539,-94.6254,79.0,21.1,11111222
Anadarko,ioos:station:wmo:42373:1,2024-03-03T01:21:00Z,27.3539,-94.6254,79.0,21.1,11111222
Anadarko,ioos:station:wmo:42373:1,2024-03-03T01:41:00Z,27.3539,-94.6254,79.0,21.1,11111222
Anadarko,ioos:station:wmo:42373:1,2024-03-03T02:01:00Z,27.3539,-94.6254,79.0,21.1,11111222
Anadarko,ioos:station:wmo:42373:1,2024-03-03T02:21:00Z,27.3539,-94.6254,79.0,21.0,11111222
Anadarko,ioos:station:wmo:42373:1,2024-03-03T02:41:00Z,27.3539,-94.6254,79.0,21.0,11111222
Anadarko,ioos:station:wmo:42373:1,2024-03-03T03:01:00Z,27.3539,-94.6254,79.0,21.1,11111222
Anadarko,ioos:station:wmo:42373:1,2024-03-03T03:21:00Z,27.3539,-94.6254,79.0,21.2,11111222
Anadarko,ioos:station:wmo:42373:1,2024-03-03T03:41:00Z,27.3539,-94.6254,79.0,21.2,11111222
Anadarko,ioos:station:wmo:42373:1,2024-03-03T04:01:00Z,27.3539,-94.6254,79.0,21.2,11111222
Anadarko,ioos:station:wmo:42373:1,2024-03-03T04:21:00Z,27.3539,-94.6254,79.0,21.2,11111222
Anadarko,ioos:station:wmo:42373:1,2024-03-03T04:41:00Z,27.3539,-94.6254,79.0,21.2,11111222
Anadarko,ioos:station:wmo:42373:1,2024-03-03T05:01:00Z,27.3539,-94.6254,79.0,21.3,11111222
Anadarko,ioos:station:wmo:42373:1,2024-03-03T05:21:00Z,27.3539,-94.6254,79.0,21.3,11111222
Anadarko,ioos:station:wmo:42373:1,2024-03-03T05:41:00Z,27.3539,-94.6254,79.0,21.3,11111222
Anadarko,ioos:station:wmo:42373:1,2024-03-03T06:01:00Z,27.3539,-94.6254,79.0,21.3,11111222
Anadarko,ioos:station:wmo:42373:1,2024-03-03T06:21:00Z,27.3539,-94.6254,79.0,21.3,11111222
Anadarko,ioos:station:wmo:42373:1,2024-03-03T06:41:00Z,27.3539,-94.6254,79.0,21.2,11111222
Anadarko,ioos:station:wmo:42373:1,2024-03-03T07:01:00Z,27.3539,-94.6254,79.0,21.2,11111222
Anadarko,ioos:station:wmo:42373:1,2024-03-03T07:21:00Z,27.3539,-94.6254,79.0,21.2,11111222
Anadarko,ioos:station:wmo:42373:1,2024-03-03T07:41:00Z,27.3539,-94.6254,79.0,21.2,11111222
Anadarko,ioos:station:wmo:42373:1,2024-03-03T08:01:00Z,27.3539,-94.6254,79.0,21.2,11111222
Anadarko,ioos:station:wmo:42373:1,2024-03-03T08:21:00Z,27.3539,-94.6254,79.0,21.2,11111222
Anadarko,ioos:station:wmo:42373:1,2024-03-03T08:41:00Z,27.3539,-94.6254,79.0,21.1,11111222
Anadarko,ioos:station:wmo:42373:1,2024-03-03T09:01:00Z,27.3539,-94.6254,79.0,21.1,11111222
Anadarko,ioos:station:wmo:42373:1,2024-03-03T09:21:00Z,27.3539,-94.6254,79.0,21.1,11111222
Anadarko,ioos:station:wmo:42373:1,2024-03-03T09:41:00Z,27.3539,-94.6254,79.0,21.2,11111222
Anadarko,ioos:station:wmo:42373:1,2024-03-03T10:01:00Z,27.3539,-94.6254,79.0,21.2,11111222
Anadarko,ioos:station:wmo:42373:1,2024-03-03T10:22:00Z,27.3539,-94.6254,79.0,21.1,11111222
Anadarko,ioos:station:wmo:42373:1,2024-03-03T10:42:00Z,27.3539,-94.6254,79.0,21.1,11111222
Anadarko,ioos:station:wmo:42373:1,2024-03-03T11:02:00Z,27.3539,-94.6254,79.0,21.0,11111222
Anadarko,ioos:station:wmo:42373:1,2024-03-03T11:22:00Z,27.3539,-94.6254,79.0,21.1,11111222
Anadarko,ioos:station:wmo:42373:1,2024-03-03T11:42:00Z,27.3539,-94.6254,79.0,21.1,11111222
Anadarko,ioos:station:wmo:42373:1,2024-03-03T12:02:00Z,27.3539,-94.6254,79.0,21.1,11111222
Anadarko,ioos:station:wmo:42373:1,2024-03-03T12:22:00Z,27.3539,-94.6254,79.0,21.1,11111222
Anadarko,ioos:station:wmo:42373:1,2024-03-03T12:42:00Z,27.3539,-94.6254,79.0,21.1,11111222
Anadarko,ioos:station:wmo:42373:1,2024-03-03T13:02:00Z,27.3539,-94.6254,79.0,21.1,11111222
Anadarko,ioos:station:wmo:42373:1,2024-03-03T13:22:00Z,27.3539,-94.6254,79.0,21.1,11111222
Anadarko,ioos:station:wmo:42373:1,2024-03-03T13:42:00Z,27.3539,-94.6254,79.0,21.1,11111222
Anadarko,ioos:station:wmo:42373:1,2024-03-03T14:02:00Z,27.3539,-94.6254,79.0,21.1,11111222
Anadarko,ioos:station:wmo:42373:1,2024-03-03T14:22:00Z,27.3539,-94.6254,79.0,21.1,11111222
Anadarko,ioos:station:wmo:42373:1,2024-03-03T14:42:00Z,27.3539,-94.6254,79.0,21.1,11111222
Anadarko,ioos:station:wmo:42373:1,2024-03-03T15:02:00Z,27.3539,-94.6254,79.0,21.1,11111222
Anadarko,ioos:station:wmo:42373:1,2024-03-03T15:22:00Z,27.3539,-94.6254,79.0,21.1,11111222
Anadarko,ioos:station:wmo:42373:1,2024-03-03T15:42:00Z,27.3539,-94.6254,79.0,21.2,11111222
Anadarko,ioos:station:wmo:42373:1,2024-03-03T16:02:00Z,27.3539,-94.6254,79.0,21.2,11111222
Anadarko,ioos:station:wmo:42373:1,2024-03-03T16:22:00Z,27.3539,-94.6254,79.0,21.1,11111222
Anadarko,ioos:station:wmo:42373:1,2024-03-03T16:42:00Z,27.3539,-94.6254,79.0,21.1,11111222
Anadarko,ioos:station:wmo:42373:1,2024-03-03T17:02:00Z,27.3539,-94.6254,79.0,21.1,11111222
Anadarko,ioos:station:wmo:42373:1,2024-03-03T17:22:00Z,27.3539,-94.6254,79.0,21.1,11111222
Anadarko,ioos:station:wmo:42373:1,2024-03-03T17:42:00Z,27.3539,-94.6254,79.0,21.1,11111222
Anadarko,ioos:station:wmo:42373:1,2024-03-03T18:02:00Z,27.3539,-94.6254,79.0,21.1,11111222
Anadarko,ioos:station:wmo:42373:1,2024-03-03T18:22:00Z,27.3539,-94.6254,79.0,21.1,11111222
Anadarko,ioos:station:wmo:42373:1,2024-03-03T18:42:00Z,27.3539,-94.6254,79.0,21.1,11111222
Anadarko,ioos:station:wmo:42373:1,2024-03-03T19:02:00Z,27.3539,-94.6254,79.0,21.1,11111222
Anadarko,ioos:station:wmo:42373:1,2024-03-03T19:22:00Z,27.3539,-94.6254,79.0,21.1,11111222
Anadarko,ioos:station:wmo:42373:1,2024-03-03T19:42:00Z,27.3539,-94.6254,79.0,21.1,11111222
Anadarko,ioos:station:wmo:42373:1,2024-03-03T20:02:00Z,27.3539,-94.6254,79.0,21.1,11111222
Anadarko,ioos:station:wmo:42373:1,2024-03-03T20:22:00Z,27.3539,-94.6254,79.0,21.1,11111222
Anadarko,ioos:station:wmo:42373:1,2024-03-03T20:42:00Z,27.3539,-94.6254,79.0,21.1,11111222
Anadarko,ioos:station:wmo:42373:1,2024-03-03T21:02:00Z,27.3539,-94.6254,79.0,21.1,11111222
Anadarko,ioos:station:wmo:42373:1,2024-03-03T21:22:00Z,27.3539,-94.6254,79.0,21.1,11111222
Anadarko,ioos:station:wmo:42373:1,2024-03-03T21:42:00Z,27.3539,-94.6254,79.0,21.1,11111222
Anadarko,ioos:station:wmo:42373:1,2024-03-03T22:02:00Z,27.3539,-94.6254,79.0,21.1,11111222
Anadarko,ioos:station:wmo:42373:1,2024-03-03T22:22:00Z,27.3539,-94.6254,79.0,21.1,11111222
Anadarko,ioos:station:wmo:42373:1,2024-03-03T22:42:00Z,27.3539,-94.6254,79.0,21.0,11111222
Anadarko,ioos:station:wmo:42373:1,2024-03-03T23:02:00Z,27.3539,-94.6254,79.0,21.1,11111222
Anadarko,ioos:station:wmo:42373:1,2024-03-03T23:22:00Z,27.3539,-94.6254,79.0,21.0,11111222
Anadarko,ioos:station:wmo:42373:1,2024-03-03T23:42:00Z,27.3539,-94.6254,79.0,20.9,11111222
Anadarko,ioos:station:wmo:42373:1,2024-03-04T00:02:00Z,27.3539,-94.6254,79.0,20.9,11111222
Anadarko,ioos:station:wmo:42373:1,2024-03-04T00:22:00Z,27.3539,-94.6254,79.0,20.9,11111222
Anadarko,ioos:station:wmo:42373:1,2024-03-04T00:42:00Z,27.3539,-94.6254,79.0,20.8,11111222
Anadarko,ioos:station:wmo:42373:1,2024-03-04T01:02:00Z,27.3539,-94.6254,79.0,20.9,11111222
Anadarko,ioos:station:wmo:42373:1,2024-03-04T01:22:00Z,27.3539,-94.6254,79.0,20.9,11111222
Anadarko,ioos:station:wmo:42373:1,2024-03-04T01:42:00Z,27.3539,-94.6254,79.0,20.9,11111222
Anadarko,ioos:station:wmo:42373:1,2024-03-04T02:02:00Z,27.3539,-94.6254,79.0,20.9,11111222
Anadarko,ioos:station:wmo:42373:1,2024-03-04T02:22:00Z,27.3539,-94.6254,79.0,20.9,11111222
Anadarko,ioos:station:wmo:42373:1,2024-03-04T02:42:00Z,27.3539,-94.6254,79.0,20.9,11111222
Anadarko,ioos:station:wmo:42373:1,2024-03-04T03:02:00Z,27.3539,-94.6254,79.0,20.9,11111222
Anadarko,ioos:station:wmo:42373:1,2024-03-04T03:22:00Z,27.3539,-94.6254,79.0,20.9,11111222
Anadarko,ioos:station:wmo:42373:1,2024-03-04T03:42:00Z,27.3539,-94.6254,79.0,20.9,11111222
Anadarko,ioos:station:wmo:42373:1,2024-03-04T04:02:00Z,27.3539,-94.6254,79.0,20.9,11111222
Anadarko,ioos:station:wmo:42373:1,2024-03-04T04:22:00Z,27.3539,-94.6254,79.0,20.9,11111222
Anadarko,ioos:station:wmo:42373:1,2024-03-04T04:42:00Z,27.3539,-94.6254,79.0,20.9,11111222
Anadarko,ioos:station:wmo:42373:1,2024-03-04T05:02:00Z,27.3539,-94.6254,79.0,20.9,11111222
Anadarko,ioos:station:wmo:42373:1,2024-03-04T05:22:00Z,27.3539,-94.6254,79.0,20.9,11111222
Anadarko,ioos:station:wmo:42373:1,2024-03-04T05:42:00Z,27.3539,-94.6254,79.0,20.9,11111222
Anadarko,ioos:station:wmo:42373:1,2024-03-04T06:02:00Z,27.3539,-94.6254,79.0,20.9,11111222
Anadarko,ioos:station:wmo:42373:1,2024-03-04T06:22:00Z,27.3539,-94.6254,79.0,20.9,11111222
Anadarko,ioos:station:wmo:42373:1,2024-03-04T06:42:00Z,27.3539,-94.6254,79.0,20.9,11111222
Anadarko,ioos:station:wmo:42373:1,2024-03-04T07:02:00Z,27.3539,-94.6254,79.0,20.9,11111222
Anadarko,ioos:station:wmo:42373:1,2024-03-04T07:22:00Z,27.3539,-94.6254,79.0,20.9,11111222
Anadarko,ioos:station:wmo:42373:1,2024-03-04T07:42:00Z,27.3539,-94.6254,79.0,20.9,11111222
Anadarko,ioos:station:wmo:42373:1,2024-03-04T08:02:00Z,27.3539,-94.6254,79.0,20.9,11111222
Anadarko,ioos:station:wmo:42373:1,2024-03-04T08:22:00Z,27.3539,-94.6254,79.0,20.9,11111222
Anadarko,ioos:station:wmo:42373:1,2024-03-04T08:42:00Z,27.3539,-94.6254,79.0,20.9,11111222
Anadarko,ioos:station:wmo:42373:1,2024-03-04T09:02:00Z,27.3539,-94.6254,79.0,20.9,11111222
Anadarko,ioos:station:wmo:42373:1,2024-03-04T09:22:00Z,27.3539,-94.6254,79.0,20.9,11111222
Anadarko,ioos:station:wmo:42373:1,2024-03-04T09:42:00Z,27.3539,-94.6254,79.0,20.9,11111222
Anadarko,ioos:station:wmo:42373:1,2024-03-04T10:02:00Z,27.3539,-94.6254,79.0,20.9,11111222
Anadarko,ioos:station:wmo:42373:1,2024-03-04T10:22:00Z,27.3539,-94.6254,79.0,20.9,11111222
Anadarko,ioos:station:wmo:42373:1,2024-03-04T10:42:00Z,27.3539,-94.6254,79.0,20.9,11111222
Anadarko,ioos:station:wmo:42373:1,2024-03-04T11:02:00Z,27.3539,-94.6254,79.0,20.9,11111222
Anadarko,ioos:station:wmo:42373:1,2024-03-04T11:22:00Z,27.3539,-94.6254,79.0,20.9,11111222
Anadarko,ioos:station:wmo:42373:1,2024-03-04T11:42:00Z,27.3539,-94.6254,79.0,20.8,11111222
Anadarko,ioos:station:wmo:42373:1,2024-03-04T12:02:00Z,27.3539,-94.6254,79.0,20.8,11111222
Anadarko,ioos:station:wmo:42373:1,2024-03-04T12:22:00Z,27.3539,-94.6254,79.0,20.8,11111222
Anadarko,ioos:station:wmo:42373:1,2024-03-04T12:42:00Z,27.3539,-94.6254,79.0,20.8,11111222
Anadarko,ioos:station:wmo:42373:1,2024-03-04T13:02:00Z,27.3539,-94.6254,79.0,20.8,11111222
Anadarko,ioos:station:wmo:42373:1,2024-03-04T13:22:00Z,27.3539,-94.6254,79.0,20.6,11111222
Anadarko,ioos:station:wmo:42373:1,2024-03-04T13:42:00Z,27.3539,-94.6254,79.0,20.6,11111222
Anadarko,ioos:station:wmo:42373:1,2024-03-04T14:02:00Z,27.3539,-94.6254,79.0,20.6,11111222